Погода в Минске

Погода в Минске : погода сейчас, прогноз погоды и архив. Всё, что Вы хотите узнать о погоде в Минске!

Хотите узнать прогноз погоды Минск? Тогда Вам сюда: Погода Минск

Поиск расширенной информации на нашем сайте:

Другие новости

Новости СМИ2

Главная страница сайта

Новости сайта

03.07.2017

Напоминаем, что на нашем специализированном сайте Метеоцентр.Азия вы можете получить высокодетализированные автоматические прогнозы погоды по пунктам России, СНГ и мира в авиационном формате (включающие направление и скорость ветра, видимость, явления погоды, количество и форму облачности, нижнюю и верхнюю границу облачности).


Погода в Минске - сегодня

Время (UTC), дата Ветер
(°,м/с) 
Видим.   Явления Облачность Т
(°С)
Тd
(°С)
f(%) Тe
(°С)
Pmin
(гПа)
dP
(гПа)
Po
(мм)
O2
(г/м3)
Тmin Tmax R s Состояние
почвы
06 18.05.18 110 (В) 26000 м    8/0 средняя, верхняя 
[Ac trans|Ci sp]
+17.8 +10.9 64 +22  1008.3  -0.3  737  277  +10.8    0.1     
09 18.05.18 210 (ЮЗ) 21000 м    8/4 1000 м верхняя 
[Cu med, cong|Ci fib]
+21.3 +8.6 44 +21  1007.7  -0.2  736  274           
12 18.05.18 150 (ЮВ) 25000 м    8/8 1000 м 
[Cu med, cong]
+23.1 +8 38 +23  1006.4  -1.1  736  272           
15 18.05.18 130 (ЮВ) 1{10}  8000 м  гроза, ливневой дождь  10/10 800 м кучево-дожд. 
[Cb cap]
+13.5 +13.2 98 +21  1009  1.5  737  280      36     
18 18.05.18 тихо ()   10 км  слаб. ливневой дождь{гроза}  9/6 960 м кучево-дожд., средняя 
[Cb cap|Ac trans]
+14.4 +13.5 94 +21  1008.1  -0.8  736  279    +24.9  45     
21 18.05.18 тихо ()   14000 м  {ливн. осадки}  8/0 средняя 
[Ac trans]
+13.4 +12.8 96 +19  1009.5  1.3  737  281           
00 19.05.18 300 (СЗ) 20000 м  {ливн. осадки}  10/0 средняя 
[Ac trans]
+13 +11.8 92 +18  1009.5  737  281           
03 19.05.18 310 (СЗ) 17000 м    10/8 720 м средняя 
[Sc|Ac trans]
+12.3 +11.1 92 +17  1010.2  0.6  738  282      0.0     
06 19.05.18 300 (СЗ) 16000 м    10/10 400 м 
[Sc]
+13.5 +12 91 +18  1011.7  1.6  739  281  +12.2    0.0     
09 19.05.18 340 (С) 19000 м    10/10 480 м 
[Sc]
+14.9 +12 83 +20  1013.3  1.7  740  280           
12 19.05.18 320 (СЗ) 23000 м    10/10 450 м 
[Sc]
+14.3 +11 81 +17  1014.7  1.3  741  282           
15 19.05.18 320 (СЗ) 21000 м    6/3 720 м средняя 
[Sc|Ac trans]
+18.1 +9.3 56 +19  1014.9  0.5  741  279           
18 19.05.18 010 (С) 24000 м    ясно 
+14.9 +1.9 41 +16  1016.8  1.6  743  283    +18.4       
21 19.05.18 350 (С) 27000 м    ясно 
+11.3 +3.1 57 +12  1019  1.7  744  287           
00 20.05.18 350 (С) 26000 м    ясно 
+8.9 +2 62 +10  1020.7  1.4  745  290           
06 20.05.18 320 (СЗ) 35000 м    ясно 
+14.1 +3 47 +15  1023.3  1.5  747  286  +7         
09 20.05.18 330 (СЗ) 30000 м    6/6 1000 м 
[Cu med, cong]
+15.9 +1.6 38 +16  1023.5  0.4  748  284           
12 20.05.18 350 (С) 21000 м    8/8 1000 м 
[Cu Sc]
+17.1 +1.5 35 +18  1023.4  748  283           
15 20.05.18 020 (С) 30000 м    6/6 1000 м 
[Cu Sc]
+18.7 +1.2 31 +19  1023  -0.2  747  282           
18 20.05.18 тихо ()   28000 м    4/4 600 м 
[Sc]
+16.2 +3.1 41 +16  1023.9  0.6  748  284    +19.1       
21 20.05.18 тихо ()   19000 м    ясно 
+10.7 +5.8 72 +11  1025.4  0.9  749  289           
00 21.05.18 020 (С) 28000 м    ясно 
+9.2 +3.8 69 +10  1026  0.4  749  291           
03 21.05.18 010 (С) 27000 м    3/0 средняя 
[Ac trans]
+8.3 +2.9 69 +9  1026.7  0.6  749  293           
06 21.05.18 130 (ЮВ) 26000 м    4/0 средняя 
[Ac trans]
+13.9 +4.6 53 +15  1026.7  0.6  750  287  +8.2         
09 21.05.18 080 (В) 30000 м    6/0 средняя, верхняя 
[Ac lent|Ci ing]
+16.6 -0.1 32 +17  1026.1  -0.3  749  285           
Время (UTC), дата Ветер
(°,м/с) 
Видим.   Явления Облачность Т
(°С)
Тd
(°С)
f(%) Тe
(°С)
Pmin
(гПа)
dP
(гПа)
Po
(мм)
O2
(г/м3)
Тmin Tmax R s Состояние
почвы

Для получения пояснительной информации подведите курсор к названию столбца.

ПОГОДА в Минске - архив

Всё, что Вы хотите узнать о погоде в Минске - удобно и подробно!

Выберите нужную дату (начиная с 1 января 2015* года) и нажмите кнопку "Найти".
Будут отображены архивные сводки погоды по пункту Минск, начиная с указанной даты.


Отображать данные в формате CSV (для использования в таблицах Excel)


Внимание! Наш архив погоды предназначен исключительно для личного некоммерческого использования в познавательных целях. Если Вам необходимы официальные справки о состоянии погоды (для производственных, юридических, коммерческих и т.п. целей), обращайтесь в органы Росгидромета.

*Примечание: данная дата относится к архиву по метеостанциям СССР (Россия, СНГ, Балтия).
Архив по метеостанциям Зарубежной Европы и Азии (кроме Китая) хранится 10 дней, по другим регионам земного шара (Китай, Африка, Америка, Австралия, Океания) - 1 день.

Минск - район местоположения метеостанции


Название, широта, долгота, высота метеостанции:
Минск (город) 53.9°ш. 27.6°д. 231 м над ур. моря [Беларусь]

Дополнительная информация

В oтличие oт бoльшинства пoгoдных сайтoв мы публикуем пoдрoбную метеoинфoрмацию в детальнoм прoфессиoнальнoм фoрмате.

Характеристики температуры и влажнoсти вoздуха измеряются на высoте 2 м в тени вдали oт зданий и деревьев.
Скoрoсть ветра измеряется на высoте 10 м (на урoвне рoста челoвека скoрoсть ветра ниже в 1.5-2 раза). Если метеoстанция нахoдится в гoрoде или в лесу, тo скoрoсть ветра занижена на 2-4 м/с пo сравнению с oткрытым местoм. Скoрoсть ветра над акватoриями крупных рек и oзёр, а также на вершинах хoлмoв на 2-5 м/с выше, чем в oбычных услoвиях.
Атмoсфернoе давление в разных тoчках местнoсти мoжет значительнo oтличаться oт давления на метеoстанции, в зависимoсти oт услoвий рельефа (при пoдъёме на 10 м давление пoнижается примернo на 1 мм рт.ст.).